When you browse on this site, cookies collect data to enhance your experience and personalize the content and advertising you see.
Visit our Privacy Policy to learn more. By continuing to use the site, you agree to this use of cookies and data.
EN

Hourly Weather Gebze

Today, 14 July, Tuesday

Time Temperature Precipitation Wind Pressure Humidity
00:00 +20°C° 0.1 mm 5 mps 747 mmHg 85%
01:00 +20°C° 0.1 mm 5 mps 747 mmHg 83%
02:00 +20°C° 0 mm 6 mps 747 mmHg 82%
03:00 +20°C° 0 mm 5 mps 747 mmHg 82%
04:00 +19°C° 0 mm 5 mps 747 mmHg 83%
05:00 +19°C° 0 mm 5 mps 747 mmHg 83%
06:00 +20°C° 0 mm 5 mps 747 mmHg 77%
07:00 +21°C° 0 mm 6 mps 747 mmHg 71%
08:00 +22°C° 0 mm 6 mps 747 mmHg 63%
09:00 +23°C° 0 mm 7 mps 747 mmHg 60%
10:00 +24°C° 0 mm 7 mps 747 mmHg 58%
11:00 +24°C° 0 mm 7 mps 747 mmHg 55%
12:00 +26°C° 0 mm 7 mps 747 mmHg 56%
13:00 +26°C° 0 mm 8 mps 747 mmHg 56%
14:00 +26°C° 0 mm 8 mps 746 mmHg 56%
15:00 +24°C° 0 mm 8 mps 746 mmHg 58%
16:00 +23°C° 0 mm 8 mps 746 mmHg 60%
17:00 +23°C° 0 mm 8 mps 746 mmHg 62%
18:00 +22°C° 0 mm 7 mps 746 mmHg 68%
19:00 +21°C° 0 mm 7 mps 747 mmHg 73%
20:00 +18°C° 0 mm 7 mps 747 mmHg 78%
21:00 +19°C° 0 mm 6 mps 747 mmHg 80%
22:00 +19°C° 0 mm 5 mps 747 mmHg 83%
23:00 +17°C° 0 mm 5 mps 747 mmHg 86%

Tomorrow, 15 July, Wednesday

Time Temperature Precipitation Wind Pressure Humidity
00:00 +17°C° 0 mm 5 mps 747 mmHg 86%
01:00 +17°C° 0 mm 5 mps 747 mmHg 87%
02:00 +18°C° 0 mm 4 mps 747 mmHg 87%
03:00 +17°C° 0 mm 5 mps 747 mmHg 86%
04:00 +17°C° 0 mm 5 mps 747 mmHg 85%
05:00 +17°C° 0 mm 5 mps 747 mmHg 84%
06:00 +19°C° 0 mm 5 mps 747 mmHg 79%
07:00 +20°C° 0 mm 5 mps 747 mmHg 74%
08:00 +21°C° 0 mm 5 mps 747 mmHg 69%
09:00 +22°C° 0 mm 5 mps 747 mmHg 66%
10:00 +23°C° 0 mm 5 mps 747 mmHg 63%
11:00 +25°C° 0 mm 5 mps 747 mmHg 60%
12:00 +24°C° 0 mm 6 mps 747 mmHg 60%
13:00 +26°C° 0 mm 6 mps 747 mmHg 59%
14:00 +26°C° 0 mm 6 mps 747 mmHg 58%
15:00 +26°C° 0 mm 6 mps 747 mmHg 60%
16:00 +24°C° 0 mm 6 mps 747 mmHg 61%
17:00 +24°C° 0 mm 6 mps 746 mmHg 62%
18:00 +22°C° 0 mm 6 mps 747 mmHg 68%
19:00 +21°C° 0 mm 5 mps 747 mmHg 73%
20:00 +20°C° 0 mm 5 mps 747 mmHg 78%
21:00 +19°C° 0 mm 5 mps 747 mmHg 81%
22:00 +19°C° 0 mm 4 mps 747 mmHg 83%
23:00 +18°C° 0 mm 4 mps 747 mmHg 85%

Day after tomorrow, 16 July, Thursday

Time Temperature Precipitation Wind Pressure Humidity
00:00 +18°C° 0 mm 3 mps 747 mmHg 86%
01:00 +18°C° 0 mm 3 mps 747 mmHg 87%
02:00 +18°C° 0 mm 3 mps 747 mmHg 88%
03:00 +18°C° 0 mm 3 mps 746 mmHg 89%
04:00 +18°C° 0 mm 3 mps 746 mmHg 89%
05:00 +18°C° 0 mm 3 mps 746 mmHg 90%
06:00 +19°C° 0 mm 3 mps 746 mmHg 82%
07:00 +21°C° 0 mm 3 mps 746 mmHg 75%
08:00 +22°C° 0 mm 3 mps 746 mmHg 67%
09:00 +24°C° 0 mm 3 mps 746 mmHg 63%
10:00 +25°C° 0 mm 3 mps 745 mmHg 60%
11:00 +26°C° 0 mm 3 mps 745 mmHg 56%
12:00 +26°C° 0 mm 3 mps 745 mmHg 56%
13:00 +27°C° 0 mm 4 mps 745 mmHg 57%
14:00 +27°C° 0 mm 4 mps 744 mmHg 57%
15:00 +27°C° 0 mm 5 mps 744 mmHg 61%
16:00 +26°C° 0 mm 5 mps 744 mmHg 64%
17:00 +26°C° 0 mm 6 mps 744 mmHg 68%
18:00 +23°C° 0.1 mm 5 mps 744 mmHg 75%
19:00 +22°C° 0.1 mm 5 mps 744 mmHg 82%
20:00 +21°C° 0.1 mm 4 mps 744 mmHg 89%
21:00 +21°C° 0 mm 4 mps 744 mmHg 90%
22:00 +20°C° 0 mm 4 mps 744 mmHg 91%
23:00 +20°C° 0 mm 4 mps 744 mmHg 92%

17 July, Friday

Time Temperature Precipitation Wind Pressure Humidity
00:00 +20°C° 0 mm 4 mps 744 mmHg 92%
01:00 +20°C° 0 mm 4 mps 744 mmHg 91%
02:00 +19°C° 0 mm 3 mps 744 mmHg 91%
03:00 +19°C° 0 mm 3 mps 744 mmHg 91%
04:00 +19°C° 0 mm 3 mps 744 mmHg 91%
05:00 +19°C° 0 mm 3 mps 744 mmHg 91%
06:00 +20°C° 0 mm 3 mps 744 mmHg 84%
07:00 +22°C° 0 mm 3 mps 744 mmHg 76%
08:00 +23°C° 0 mm 4 mps 744 mmHg 69%
09:00 +25°C° 0 mm 4 mps 744 mmHg 64%
10:00 +26°C° 0 mm 4 mps 744 mmHg 59%
11:00 +27°C° 0 mm 4 mps 744 mmHg 54%
12:00 +28°C° 0 mm 5 mps 744 mmHg 53%
13:00 +28°C° 0 mm 5 mps 744 mmHg 53%
14:00 +28°C° 0 mm 6 mps 743 mmHg 53%
15:00 +27°C° 0 mm 6 mps 743 mmHg 56%
16:00 +27°C° 0 mm 6 mps 743 mmHg 58%
17:00 +26°C° 0 mm 7 mps 743 mmHg 61%
18:00 +24°C° 0 mm 6 mps 743 mmHg 68%
19:00 +22°C° 0 mm 5 mps 743 mmHg 74%
20:00 +21°C° 0 mm 5 mps 743 mmHg 81%
21:00 +20°C° 0 mm 4 mps 744 mmHg 84%
22:00 +20°C° 0 mm 4 mps 744 mmHg 86%
23:00 +19°C° 0 mm 4 mps 744 mmHg 89%

18 July, Saturday

Time Temperature Precipitation Wind Pressure Humidity
00:00 +19°C° 0 mm 3 mps 744 mmHg 89%
01:00 +19°C° 0 mm 3 mps 743 mmHg 90%
02:00 +19°C° 0 mm 3 mps 743 mmHg 90%
03:00 +19°C° 0 mm 3 mps 743 mmHg 90%
04:00 +19°C° 0 mm 3 mps 743 mmHg 90%
05:00 +19°C° 0 mm 3 mps 743 mmHg 90%
06:00 +20°C° 0 mm 3 mps 743 mmHg 83%
07:00 +22°C° 0 mm 3 mps 743 mmHg 76%
08:00 +25°C° 0 mm 4 mps 743 mmHg 69%
09:00 +26°C° 0 mm 3 mps 743 mmHg 65%
10:00 +28°C° 0 mm 3 mps 742 mmHg 60%
11:00 +29°C° 0 mm 3 mps 742 mmHg 55%
12:00 +30°C° 0 mm 4 mps 742 mmHg 55%
13:00 +30°C° 0 mm 5 mps 742 mmHg 54%
14:00 +32°C° 0 mm 6 mps 742 mmHg 54%
15:00 +30°C° 0 mm 6 mps 741 mmHg 58%
16:00 +29°C° 0 mm 6 mps 741 mmHg 62%
17:00 +28°C° 0 mm 6 mps 741 mmHg 66%
18:00 +27°C° 0 mm 5 mps 741 mmHg 73%
19:00 +25°C° 0 mm 4 mps 742 mmHg 80%
20:00 +24°C° 0 mm 3 mps 742 mmHg 88%
21:00 +22°C° 0 mm 3 mps 742 mmHg 89%
22:00 +23°C° 0 mm 2 mps 742 mmHg 91%
23:00 +23°C° 0 mm 2 mps 742 mmHg 92%

19 July, Sunday

Time Temperature Precipitation Wind Pressure Humidity
00:00 +23°C° 0 mm 1 mps 742 mmHg 93%
01:00 +22°C° 0 mm 1 mps 742 mmHg 93%
02:00 +22°C° 0 mm 1 mps 742 mmHg 94%
03:00 +22°C° 0 mm 1 mps 742 mmHg 94%
04:00 +20°C° 0 mm 0 mps 742 mmHg 94%
05:00 +20°C° 0 mm 0 mps 743 mmHg 94%
06:00 +23°C° 0 mm 1 mps 743 mmHg 88%
07:00 +24°C° 0 mm 1 mps 743 mmHg 82%
08:00 +26°C° 0 mm 2 mps 743 mmHg 77%
09:00 +27°C° 0 mm 2 mps 743 mmHg 71%
10:00 +28°C° 0 mm 2 mps 743 mmHg 66%
11:00 +29°C° 0 mm 3 mps 743 mmHg 61%
12:00 +29°C° 0 mm 3 mps 743 mmHg 60%
13:00 +30°C° 0 mm 4 mps 743 mmHg 59%
14:00 +30°C° 0 mm 4 mps 743 mmHg 58%
15:00 +30°C° 0 mm 3 mps 743 mmHg 57%
16:00 +30°C° 0 mm 3 mps 743 mmHg 56%
17:00 +29°C° 0 mm 2 mps 743 mmHg 54%
18:00 +28°C° 0 mm 2 mps 744 mmHg 60%
19:00 +26°C° 0 mm 1 mps 744 mmHg 66%
20:00 +24°C° 0 mm 1 mps 745 mmHg 72%
21:00 +24°C° 0 mm 1 mps 745 mmHg 73%
22:00 +23°C° 0 mm 1 mps 746 mmHg 75%
23:00 +23°C° 0 mm 1 mps 746 mmHg 76%
Show more